Canadian, TX

1:51 PM CDT on May 29, 2017 (GMT -0500)
Hemphill County

Weather History for KHHF - December, 2012

Change the Weather History Date:

Thursday, December 6, 2012

  Actual Average (KPPA) Record (KPPA)
Temperature  
Mean Temperature 48 °F -  
Max Temperature 60 °F 53 °F 76 °F (1987)
Min Temperature 35 °F 27 °F 0 °F (1972)
Degree Days  
Heating Degree Days 18    
Moisture  
Dew Point 25 °F    
Average Humidity 39    
Maximum Humidity 65    
Minimum Humidity 23    
Precipitation  
Precipitation 0.00 in - - ()
Sea Level Pressure  
Sea Level Pressure 29.85 in    
Wind  
Wind Speed 13 mph (North)    
Max Wind Speed 23 mph    
Max Gust Speed 33 mph    
Visibility 10 miles    
Events      
Averages and records for this station are not official NWS values.
T = Trace of Precipitation, MM = Missing Value Source: NWS Daily Summary

Daily Weather History Graph

Daily Weather History Graph

Search for Another Location

Airport or City:

Trip Planner

Search our weather history database for the weather conditions in past years. The results will help you decide how hot, cold, wet, or windy it might be!

Date:

Astronomy

Dec. 06, 2012 Rise Set
Actual Time 7:38 AM CST 5:27 PM CST
Civil Twilight 7:09 AM CST 5:55 PM CST
Nautical Twilight 6:38 AM CST 6:27 PM CST
Astronomical Twilight 6:07 AM CST 6:58 PM CST
Moon 12:09 AM CST (12/6) 12:42 PM CST (12/6)
Length of Visible Light 10h 45m
Length of Day
9h 49m
Waning Gibbous, 49% of the Moon is Illuminated
Dec 6
Waning Gibbous
Dec 13
New
Dec 19
First Quarter
Dec 28
Full
Jan 4
Last Quarter

Hourly Weather History & Observations

Time (CST) Temp. Windchill Dew Point Humidity Pressure Visibility Wind Dir Wind Speed Gust Speed Precip Events Conditions
12:15 AM 50.0 °F - 21.2 °F 32% 29.87 in 10.0 mi South 23.0 mph 33.4 mph N/A   Clear
12:35 AM 50.0 °F - 21.2 °F 32% 29.86 in 10.0 mi South 21.9 mph 27.6 mph N/A   Clear
12:55 AM 50.0 °F - 21.2 °F 32% 29.86 in 10.0 mi South 20.7 mph 28.8 mph N/A   Clear
1:15 AM 50.0 °F - 21.2 °F 32% 29.84 in 10.0 mi SSW 13.8 mph 21.9 mph N/A   Clear
1:35 AM 50.0 °F - 21.2 °F 32% 29.83 in 10.0 mi SSW 11.5 mph 17.3 mph N/A   Clear
1:55 AM 50.0 °F - 21.2 °F 32% 29.82 in 10.0 mi SSW 16.1 mph 20.7 mph N/A   Clear
2:15 AM 50.0 °F - 21.2 °F 32% 29.83 in 10.0 mi SSW 10.4 mph 18.4 mph N/A   Clear
2:35 AM 50.0 °F - 21.2 °F 32% 29.82 in 10.0 mi SW 11.5 mph 18.4 mph N/A   Clear
2:55 AM 48.2 °F - 21.2 °F 34% 29.81 in 10.0 mi SW 13.8 mph 18.4 mph N/A   Clear
3:15 AM 46.4 °F 41.9 °F 21.2 °F 37% 29.81 in 10.0 mi SW 9.2 mph - N/A   Clear
3:35 AM 44.6 °F 39.2 °F 21.2 °F 39% 29.79 in 10.0 mi SSW 10.4 mph - N/A   Clear
7:35 AM 35.6 °F 32.8 °F 21.2 °F 56% 29.76 in 10.0 mi WSW 3.5 mph - N/A   Clear
7:55 AM 37.4 °F 33.8 °F 23.0 °F 56% 29.77 in 10.0 mi WNW 4.6 mph - N/A   Clear
8:15 AM 41.0 °F 38.0 °F 23.0 °F 49% 29.77 in 10.0 mi NW 4.6 mph - N/A   Clear
8:35 AM 44.6 °F 38.8 °F 26.6 °F 49% 29.77 in 10.0 mi WNW 11.5 mph - N/A   Clear
8:55 AM 46.4 °F 40.7 °F 26.6 °F 46% 29.79 in 10.0 mi WNW 12.7 mph - N/A   Clear
9:15 AM 46.4 °F 40.7 °F 26.6 °F 46% 29.80 in 10.0 mi WNW 12.7 mph - N/A   Clear
9:35 AM 44.6 °F 39.7 °F 26.6 °F 49% 29.80 in 10.0 mi WNW 9.2 mph - N/A   Clear
9:55 AM 46.4 °F 40.1 °F 24.8 °F 43% 29.81 in 10.0 mi NW 15.0 mph - N/A   Clear
10:15 AM 50.0 °F - 24.8 °F 37% 29.81 in 10.0 mi NNW 15.0 mph 18.4 mph N/A   Clear
10:35 AM 53.6 °F - 24.8 °F 33% 29.81 in 10.0 mi North 12.7 mph 18.4 mph N/A   Clear
10:55 AM 53.6 °F - 23.0 °F 30% 29.81 in 10.0 mi North 16.1 mph 20.7 mph N/A   Clear
11:15 AM 53.6 °F - 23.0 °F 30% 29.82 in 10.0 mi North 17.3 mph - N/A   Clear
11:35 AM 55.4 °F - 23.0 °F 29% 29.82 in 10.0 mi North 16.1 mph 19.6 mph N/A   Clear
11:55 AM 55.4 °F - 23.0 °F 29% 29.82 in 10.0 mi North 12.7 mph 18.4 mph N/A   Clear
12:15 PM 59.0 °F - 23.0 °F 25% 29.81 in 10.0 mi North 18.4 mph 23.0 mph N/A   Clear
12:35 PM 59.0 °F - 23.0 °F 25% 29.81 in 10.0 mi North 16.1 mph 21.9 mph N/A   Clear
12:55 PM 59.0 °F - 24.8 °F 27% 29.81 in 10.0 mi North 18.4 mph 23.0 mph N/A   Clear
1:15 PM 60.8 °F - 24.8 °F 25% 29.80 in 10.0 mi North 17.3 mph 24.2 mph N/A   Clear
1:35 PM 60.8 °F - 24.8 °F 25% 29.80 in 10.0 mi North 15.0 mph 19.6 mph N/A   Clear
1:55 PM 60.8 °F - 24.8 °F 25% 29.81 in 10.0 mi North 13.8 mph 19.6 mph N/A   Clear
2:15 PM 60.8 °F - 24.8 °F 25% 29.81 in 10.0 mi North 15.0 mph 21.9 mph N/A   Clear
2:35 PM 60.8 °F - 24.8 °F 25% 29.81 in 10.0 mi North 16.1 mph 20.7 mph N/A   Clear
2:55 PM 60.8 °F - 23.0 °F 23% 29.81 in 10.0 mi North 15.0 mph 21.9 mph N/A   Clear
3:15 PM 60.8 °F - 23.0 °F 23% 29.82 in 10.0 mi North 16.1 mph 23.0 mph N/A   Clear
3:35 PM 59.0 °F - 23.0 °F 25% 29.83 in 10.0 mi North 11.5 mph 21.9 mph N/A   Clear
3:55 PM 59.0 °F - 24.8 °F 27% 29.83 in 10.0 mi NNE 12.7 mph 16.1 mph N/A   Clear
4:15 PM 59.0 °F - 24.8 °F 27% 29.83 in 10.0 mi NNE 11.5 mph 20.7 mph N/A   Clear
4:35 PM 57.2 °F - 23.0 °F 27% 29.83 in 10.0 mi NNE 13.8 mph 18.4 mph N/A   Clear
4:55 PM 55.4 °F - 23.0 °F 29% 29.85 in 10.0 mi NNE 10.4 mph 17.3 mph N/A   Clear
5:15 PM 55.4 °F - 23.0 °F 29% 29.86 in 10.0 mi NNE 6.9 mph - N/A   Clear
5:35 PM 53.6 °F - 24.8 °F 33% 29.88 in 10.0 mi NNE 6.9 mph - N/A   Clear
5:55 PM 51.8 °F - 24.8 °F 35% 29.88 in 10.0 mi NNE 6.9 mph - N/A   Clear
6:15 PM 50.0 °F - 24.8 °F 37% 29.89 in 10.0 mi North 5.8 mph - N/A   Clear
6:35 PM 50.0 °F - 24.8 °F 37% 29.90 in 10.0 mi North 5.8 mph - N/A   Clear
6:55 PM 46.4 °F 42.4 °F 23.0 °F 40% 29.91 in 10.0 mi North 8.1 mph - N/A   Clear
7:15 PM 46.4 °F 42.9 °F 24.8 °F 43% 29.91 in 10.0 mi North 6.9 mph - N/A   Clear
7:35 PM 46.4 °F 42.9 °F 26.6 °F 46% 29.91 in 10.0 mi North 6.9 mph - N/A   Clear
7:55 PM 46.4 °F 42.9 °F 28.4 °F 50% 29.92 in 10.0 mi North 6.9 mph - N/A   Clear
8:35 PM 44.6 °F 40.7 °F 28.4 °F 53% 29.92 in 10.0 mi North 6.9 mph - N/A   Clear
8:55 PM 44.6 °F 41.4 °F 28.4 °F 53% 29.92 in 10.0 mi NNE 5.8 mph - N/A   Clear
9:15 PM 44.6 °F 40.7 °F 28.4 °F 53% 29.92 in 10.0 mi NNE 6.9 mph - N/A   Clear
9:35 PM 42.8 °F 40.1 °F 28.4 °F 57% 29.92 in 10.0 mi North 4.6 mph - N/A   Clear
9:55 PM 42.8 °F 41.1 °F 28.4 °F 57% 29.93 in 10.0 mi North 3.5 mph - N/A   Clear
10:15 PM 42.8 °F 39.3 °F 28.4 °F 57% 29.93 in 10.0 mi North 5.8 mph - N/A   Clear
10:35 PM 42.8 °F 40.1 °F 28.4 °F 57% 29.93 in 10.0 mi North 4.6 mph - N/A   Clear
10:55 PM 42.8 °F 39.3 °F 28.4 °F 57% 29.93 in 10.0 mi North 5.8 mph - N/A   Clear
11:15 PM 41.0 °F 39.0 °F 28.4 °F 61% 29.94 in 10.0 mi North 3.5 mph - N/A   Clear
11:35 PM 41.0 °F 39.0 °F 28.4 °F 61% 29.93 in 10.0 mi North 3.5 mph - N/A   Clear
11:55 PM 41.0 °F 37.1 °F 30.2 °F 65% 29.94 in 10.0 mi North 5.8 mph - N/A   Clear